Location: Palo Alto
(37.4420°N, 122.1420°W)
Time: 23:27:38
(UTC-07:00)

Daily predictions for brighter satellites

Satellite Brightness Start Highest point End
(mag) Time Altitude Azimuth Time Altitude Azimuth Time Altitude Azimuth
Cosmos 2322 Rocket 2.7 20:12:13 10° S 20:17:23 37° ESE 20:22:34 10° NE
Cosmos 2026 Rocket 4.1 20:11:22 10° S 20:17:38 71° E 20:23:59 10° N
NOSS 2-3 (E) 4.5 20:14:40 10° S 20:18:45 32° ESE 20:23:14 10° NE
Cosmos 1441 Rocket 3.2 20:15:36 10° N 20:19:20 86° W 20:23:05 10° S
Cosmos 1190 Rocket 4.3 20:16:04 10° NNW 20:21:20 76° WSW 20:26:36 10° S
Meteor 1-18 Rocket 4.4 20:17:09 10° N 20:23:07 90° NW 20:29:03 10° S
Lacrosse 5 2.6 20:22:04 10° S 20:26:27 30° ESE 20:30:50 10° ENE
Cosmos 405 Rocket 4.2 20:23:35 10° NNW 20:27:13 41° W 20:30:55 10° SSW
BREEZE-M DEB (TANK) 2.3 20:22:42 10° WSW 20:28:12 71° NW 20:30:32 10° NE
SL-16 R/B 2.4 20:23:27 10° S 20:28:50 47° ESE 20:34:14 10° NE
Cosmos 839 Rocket 4.0 20:23:58 10° SSW 20:30:20 89° ESE 20:36:35 10° NNE
Okean 2 Rocket 3.2 20:26:11 10° S 20:30:40 83° W 20:35:12 10° N
USA 186 2.4 20:28:29 10° SE 20:31:39 40° ENE 20:34:50 10° N
ALOS 4.0 20:27:34 10° SSW 20:31:49 35° W 20:36:07 10° NNW
SeaSat 1 2.8 20:28:00 10° NE 20:32:40 41° ESE 20:37:16 10° S
CZ-4C R/B 4.1 20:25:49 10° NW 20:32:47 44° WSW 20:40:15 10° S
Okean 1 3.2 20:29:33 10° N 20:33:33 82° E 20:37:31 10° S
Cosmos 1655 Rocket 4.0 20:27:25 10° S 20:33:39 72° E 20:39:58 10° N
Cosmos 1939 Rocket 4.1 20:31:10 10° SE 20:34:25 24° ENE 20:37:38 10° NNE
EXPRESS MD2 3.7 20:32:24 10° WSW 20:34:39 42° NNW 20:38:03 10° NE
Cosmos 1536 3.9 20:33:46 10° SSE 20:37:10 26° E 20:40:35 10° NNE
Cosmos 676 Rocket 4.1 20:32:47 10° NNW 20:38:07 89° ENE 20:43:28 10° SSE
Lacrosse 5 rocket 1.1 20:35:40 10° NW 20:39:21 88° SW 20:43:02 11° SE
Meteor 1-19 Rocket 4.5 20:36:20 10° N 20:42:05 54° ENE 20:47:43 10° SSE
DELTA 2 R/B(2) 3.6 20:42:39 10° W 20:44:47 46° SSW 20:45:34 23° SE
Cosmos 1140 Rocket 3.5 20:40:33 10° NNW 20:45:47 73° ENE 20:51:01 10° SSE
Delta 2 Rocket 4.1 20:43:41 10° SW 20:47:20 34° SSE 20:50:28 15° E
Spot 2 Rocket 3.5 20:42:35 10° SSE 20:47:40 76° ENE 20:52:45 10° N
GPS 2-05 Rocket1 2.8 20:44:24 10° W 20:47:46 63° S 20:50:03 18° ESE
Resurs 1-3 3.6 20:44:30 10° SSE 20:48:52 84° ENE 20:53:17 10° N
Cosmos 614 Rocket 4.0 20:43:52 10° NNW 20:48:58 65° ENE 20:54:04 10° SSE
Cosmos 2360 Rocket 3.0 20:46:08 10° SSE 20:50:46 27° ESE 20:55:24 10° NE
Cosmos 1980 Rocket 3.9 20:46:41 10° SW 20:51:49 36° WNW 20:56:58 10° N
NOSS 2-3 (C) 3.7 20:47:41 10° SSW 20:52:14 67° ESE 20:57:25 10° NE
DELTA 2 R/B (1) 3.9 20:50:32 10° WNW 20:56:03 60° SSW 21:00:11 18° SE
CZ-2D R/B 3.9 20:53:07 10° S 20:56:55 56° W 21:00:43 10° NNW
Cosmos 1954 Rocket 4.3 20:53:37 10° NNW 20:58:55 72° WSW 21:04:12 10° S
Meteor 1-5 Rocket 4.5 20:55:51 10° SSE 21:00:50 41° E 21:05:47 10° NNE
SJ-11-01 4.5 20:57:54 14° SSE 21:01:44 52° ENE 21:06:16 10° N
Meteor 1-29 4.4 20:59:12 10° NE 21:01:16 19° E 21:01:16 19° E
Helios 1B rocket 3.1 20:59:02 10° NE 21:02:44 31° E 21:05:00 18° SSE
ERS-1 Rocket 4.1 21:06:33 20° ESE 21:08:30 26° ENE 21:12:37 10° NNE
Tiangong 1 1.9 21:09:35 10° NW 21:12:11 36° NNE 21:13:04 27° NE
Meteor 2-4 Rocket 3.7 21:07:15 10° N 21:12:49 69° E 21:17:42 14° SSE
Okean 1 Rocket 3.2 21:09:17 13° SSE 21:12:53 48° E 21:17:06 10° NNE
Cosmos 1300 Rocket 3.4 21:11:15 10° S 21:15:32 83° E 21:19:51 10° N
Cosmos 1741 Rocket 4.0 21:10:50 10° NNW 21:16:05 72° ENE 21:19:32 22° SSE
Envisat 3.2 21:11:48 10° S 21:16:51 73° WSW 21:21:57 10° NNW
Meteor 1-13 Rocket 4.5 21:10:55 10° NNW 21:16:54 77° W 21:22:48 10° S
H-2A R/B 3.7 21:20:05 16° ENE 21:20:44 16° ENE 21:23:43 10° NNE
Resurs 01 Rocket 3.1 21:18:40 10° SSW 21:22:46 36° W 21:26:52 10° NNW
Cosmos 1025 Rocket 3.7 21:18:53 10° NNE 21:22:47 34° ENE 21:23:26 32° E
ATLAS 3B R/B 3.5 21:17:46 10° NNW 21:23:47 33° NE 21:26:52 23° E
Okean 1-7 Rocket 4.3 21:20:59 10° N 21:25:09 36° ENE 21:25:57 33° ESE
Cosmos 1607 4.2 21:18:58 10° NNW 21:25:21 58° NE 21:28:39 29° SE
USA 267 4.5 21:23:36 10° S 21:29:26 35° SW 21:35:19 10° WNW
Atlas Centaur 2 3.3 21:26:36 10° W 21:34:18 45° SSW 21:37:23 30° SE
Okean 2 3.9 21:30:56 10° N 21:34:47 39° E 21:34:48 39° E
Cosmos 2266 Rocket 4.0 21:29:25 10° S 21:35:28 81° W 21:41:31 10° N
Cosmos 2315 Rocket 4.0 21:35:53 10° N 21:42:05 64° E 21:44:55 33° SSE
Nadezhda 2 Rocket 4.4 21:41:21 21° S 21:45:37 70° E 21:51:49 10° NNE
Cosmos 1110 Rocket 3.8 21:40:40 10° SSW 21:45:49 84° ESE 21:51:01 10° NNE
Helios 1A 3.1 21:44:50 37° S 21:46:25 72° WSW 21:50:41 10° NNW
CZ-4B DEB 3.7 21:49:53 38° NNW 21:49:53 38° NNW 21:51:48 10° NNW
ARGOS 3.4 21:50:07 44° ESE 21:51:00 48° ENE 21:56:09 10° N
Cosmos 1975 4.5 21:55:37 22° NE 21:55:37 22° NE 21:57:21 10° NNE
YAOGAN 6 3.7 21:54:23 32° SW 21:55:19 39° W 21:58:40 10° NNW
BREEZE-M DEB (TANK) 4.3 21:52:30 10° W 21:55:50 41° NNW 22:05:38 10° ENE
ATLAS 2AS CENTAUR R/B 3.4 21:50:46 10° SW 21:58:21 66° NW 22:06:26 10° NNE
Cosmos 1331 Rocket 4.0 21:54:36 10° SSW 21:59:46 82° WNW 22:05:01 10° NNE
Cosmos 2263 Rocket 2.6 21:55:23 10° NNW 22:00:58 58° WSW 22:03:19 33° S
Cosmos 2322 Rocket 4.2 21:56:33 10° WSW 22:01:27 29° WNW 22:06:23 10° N
Cosmos 2278 Rocket 4.3 21:59:51 10° NNE 22:02:12 12° NE 22:02:46 12° NE
SPOT 5 3.2 22:03:22 47° ENE 22:03:22 47° ENE 22:07:38 10° N
Cosmos 1515 4.2 21:59:55 10° N 22:02:54 52° NNE 22:02:54 52° NNE
Cosmos 2237 4.0 22:02:25 32° S 22:05:07 75° ESE 22:10:49 10° NNE
Cosmos 1892 Rocket 4.3 22:03:49 10° N 22:07:05 40° NE 22:07:05 40° NE
Aureole 3 Rocket 4.2 22:00:11 10° N 22:08:21 59° ENE 22:09:37 51° ESE
Cosmos 1844 Rocket 3.6 22:03:17 10° N 22:08:25 34° ENE 22:08:33 34° ENE
Centaur D AC-29 4.1 22:02:23 10° SW 22:08:06 16° S 22:08:06 16° S
Lacrosse 5 3.1 22:04:28 10° WSW 22:09:16 41° NW 22:14:05 10° NNE
Cosmos 1932 4.5 22:03:02 10° NNW 22:09:31 78° WSW 22:11:17 50° SSE
Meteor 1-12 Rocket 4.3 22:09:55 55° E 22:09:55 55° E 22:15:13 10° NNE
Cosmos 1500 4.3 22:18:05 42° N 22:18:05 42° N 22:20:47 10° N
Cosmos 2219 Rocket 3.7 22:22:53 23° NE 22:22:53 23° NE 22:25:12 10° NE
SPOT 1/Viking Rocket 3.8 22:22:17 55° NE 22:22:17 55° NE 22:26:56 10° N
Cosmos 1818 4.4 22:24:01 37° NE 22:24:01 37° NE 22:27:18 10° NE
MetOp-B 4.2 22:21:45 62° SSW 22:22:30 73° WSW 22:27:51 10° NNW
Cosmos 2322 4.2 22:17:37 10° SW 22:23:09 58° WNW 22:28:46 10° NNE
Cosmos 1455 Rocket 4.4 22:34:49 34° NNE 22:34:49 34° NNE 22:37:22 10° N
SL-08 RB Rocket 4.2 22:33:49 57° NNW 22:33:49 57° NNW 22:37:30 10° NNW
COSMOS 2428 2.6 22:33:07 89° NNE 22:33:07 89° NNE 22:38:50 10° NNE
Cosmos 2360 Rocket 3.5 22:29:20 10° SW 22:34:32 38° WNW 22:39:46 10° N
Cosmos 1844 4.3 22:38:34 10° NNW 22:43:13 46° NE 22:43:13 46° NE
Cosmos 2333 Rocket 3.7 22:49:40 25° NE 22:49:40 25° NE 22:51:58 10° NNE
ERS-1 Rocket 4.2 22:46:33 32° WSW 22:47:06 33° W 22:51:37 10° NNW
Terra 3.3 22:51:20 30° NNE 22:51:20 30° NNE 22:53:58 10° N
Cosmos 2333 4.5 22:54:43 64° NW 22:54:43 64° NW 23:00:03 10° NNE
NOSS 3-2 (A) 4.0 22:48:52 10° NNW 22:56:26 64° NE 22:57:01 62° ENE
USA 238 DEB 3.7 22:50:48 10° NW 22:57:54 73° WSW 22:58:05 73° SW
USA 238 3.7 22:50:54 10° NW 22:58:00 74° WSW 22:58:11 73° SW
Nadezhda 1 Rocket 4.1 22:51:55 10° N 22:57:37 73° NNE 22:57:37 73° NNE
H-2A R/B 2.8 23:00:43 47° WNW 23:00:43 47° WNW 23:04:37 10° NNW
Cosmos 2237 Rocket 4.1 23:09:10 19° NE 23:09:10 19° NE 23:10:43 10° NNE
ATLAS 3B R/B 3.3 23:08:19 10° NW 23:14:07 45° WSW 23:14:07 45° WSW
Atlas Centaur 2 4.5 23:17:21 10° WSW 23:20:01 18° WSW 23:20:01 18° WSW
NOSS 3-2 (C) 4.0 23:27:18 10° NNW 23:34:19 76° N 23:34:19 76° N
Cosmos 2278 Rocket 3.6 23:41:25 10° NNW 23:44:36 35° NNW 23:44:36 35° NNW
